Weather History for Bedford, MA

Change the Weather History Date:

Monday, March 31, 2014

  Actual Average Record
Temperature  
Mean Temperature 36 °F -  
Max Temperature 39 °F 49 °F 91 °F (1998)
Min Temperature 33 °F 32 °F 20 °F (1965)
Degree Days  
Heating Degree Days 29    
Moisture  
Dew Point 33 °F    
Average Humidity 92    
Maximum Humidity 100    
Minimum Humidity 70    
Precipitation  
Precipitation 0.88 in - - ()
Sea Level Pressure  
Sea Level Pressure 29.84 in    
Wind  
Wind Speed 11 mph (North)    
Max Wind Speed 15 mph    
Max Gust Speed 24 mph    
Visibility 6 miles    
Events Rain    
Averages and records for this station are not official NWS values.
T = Trace of Precipitation, MM = Missing Value Source: NWS Daily Summary

Daily Weather History Graph

Daily Weather History Graph

Search for Another Location

Airport:

Trip Planner

Search our weather history database for the weather conditions in past years. The results will help you decide how hot, cold, wet, or windy it might be!

Date:

Astronomy

Mar. 31, 2014 Rise Set
Actual Time 6:29 AM EDT 7:09 PM EDT
Civil Twilight 6:01 AM EDT 7:38 PM EDT
Nautical Twilight 5:27 AM EDT 8:12 PM EDT
Astronomical Twilight 4:52 AM EDT 8:46 PM EDT
Moon 6:49 AM EDT (3/31) 8:27 PM EDT (3/31)
Length of Visible Light 13h 37m
Length of Day
12h 40m
New Moon, 1% of the Moon is Illuminated
Mar 31
New Moon
Apr 7
First Quarter
Apr 15
Full
Apr 22
Last Quarter
Apr 29
New

Hourly Weather History & Observations

Time (EDT) Temp. Windchill Dew Point Humidity Pressure Visibility Wind Dir Wind Speed Gust Speed Precip Events Conditions
12:56 AM 35.1 °F 27.4 °F 34.0 °F 96% 29.77 in 4.0 mi North 10.4 mph - 0.12 in Rain Rain
1:22 AM 34.0 °F 25.0 °F 34.0 °F 100% 29.73 in 5.0 mi NNE 12.7 mph 19.6 mph 0.08 in Rain Light Rain
1:29 AM 34.0 °F 25.5 °F 34.0 °F 100% 29.74 in 3.0 mi North 11.5 mph - 0.12 in Rain Heavy Rain
1:47 AM 33.1 °F 24.4 °F 33.1 °F 100% 29.73 in 3.0 mi North 11.5 mph 17.3 mph 0.24 in Rain Heavy Rain
1:56 AM 34.0 °F 25.0 °F 33.1 °F 96% 29.78 in 4.0 mi North 12.7 mph - 0.27 in Rain Rain
2:32 AM 34.0 °F 26.6 °F 34.0 °F 100% 29.72 in 2.5 mi North 9.2 mph - 0.05 in Rain Heavy Rain
2:46 AM 33.1 °F 24.4 °F 33.1 °F 100% 29.71 in 3.0 mi North 11.5 mph - 0.08 in Rain Rain
2:56 AM 33.1 °F 24.9 °F 33.1 °F 100% 29.75 in 5.0 mi North 10.4 mph - 0.10 in Rain Light Rain
3:09 AM 33.1 °F 23.4 °F 33.1 °F 100% 29.70 in 5.0 mi North 13.8 mph - 0.02 in Rain Rain
3:56 AM 34.0 °F 25.0 °F 33.1 °F 96% 29.75 in 4.0 mi North 12.7 mph - 0.15 in Rain Rain
4:03 AM 34.0 °F 26.0 °F 33.1 °F 96% 29.70 in 4.0 mi North 10.4 mph - 0.02 in Rain Rain
4:33 AM 34.0 °F 27.2 °F 34.0 °F 100% 29.72 in 3.0 mi NNE 8.1 mph - 0.08 in Rain Light Rain
4:56 AM 34.0 °F 25.5 °F 33.1 °F 96% 29.78 in 3.0 mi North 11.5 mph - 0.11 in Rain Light Rain
5:56 AM 33.1 °F 24.4 °F 33.1 °F 100% 29.78 in 4.0 mi North 11.5 mph - 0.02 in   Overcast
6:54 AM 33.8 °F 24.8 °F 33.8 °F 100% 29.75 in 2.5 mi North 12.7 mph - 0.00 in   Overcast
6:56 AM 34.0 °F 26.0 °F 34.0 °F 100% 29.80 in 2.5 mi North 10.4 mph - 0.00 in   Overcast
7:56 AM 34.0 °F 26.0 °F 33.1 °F 96% 29.83 in 10.0 mi North 10.4 mph 23.0 mph N/A   Overcast
8:03 AM 35.1 °F 25.9 °F 33.1 °F 92% 29.78 in 10.0 mi North 13.8 mph 24.2 mph 0.00 in Rain Light Rain
8:33 AM 35.1 °F 26.4 °F 34.0 °F 96% 29.80 in 10.0 mi North 12.7 mph 18.4 mph 0.00 in   Overcast
8:56 AM 34.0 °F 25.0 °F 33.1 °F 96% 29.85 in 2.5 mi North 12.7 mph - 0.03 in Rain Rain
9:01 AM 34.0 °F 26.0 °F 33.1 °F 96% 29.81 in 3.0 mi North 10.4 mph - 0.00 in Rain Light Rain
9:21 AM 34.0 °F 26.0 °F 34.0 °F 100% 29.82 in 5.0 mi North 10.4 mph - 0.01 in Rain Light Rain
9:56 AM 34.0 °F 25.0 °F 34.0 °F 100% 29.87 in 9.0 mi North 12.7 mph - 0.02 in Rain Light Rain
10:54 AM 33.8 °F 25.8 °F 33.8 °F 100% 29.83 in 5.0 mi NNW 10.4 mph 18.4 mph 0.00 in Rain Light Rain
10:56 AM 34.0 °F 25.5 °F 34.0 °F 100% 29.88 in 5.0 mi NNW 11.5 mph 18.4 mph 0.00 in Rain Light Rain
11:13 AM 34.0 °F 28.0 °F 34.0 °F 100% 29.83 in 5.0 mi NNW 6.9 mph - 0.01 in Rain Light Rain
11:23 AM 33.1 °F 23.4 °F 33.1 °F 100% 29.84 in 3.0 mi North 13.8 mph 17.3 mph 0.02 in Rain Light Rain
11:56 AM 33.1 °F 25.5 °F 32.0 °F 96% 29.88 in 5.0 mi NNW 9.2 mph - 0.06 in Rain Light Rain
12:03 PM 33.1 °F 23.9 °F 33.1 °F 100% 29.83 in 6.0 mi NNW 12.7 mph - 0.00 in Rain Light Rain
12:15 PM 34.0 °F 26.0 °F 33.1 °F 96% 29.84 in 3.0 mi NNW 10.4 mph - 0.00 in Rain Light Rain
12:56 PM 35.1 °F 28.6 °F 34.0 °F 96% 29.88 in 6.0 mi NNW 8.1 mph - 0.00 in Rain Light Rain
1:56 PM 37.0 °F 29.3 °F 35.1 °F 93% 29.88 in 10.0 mi NW 11.5 mph - 0.00 in   Overcast
2:03 PM 37.0 °F 30.4 °F 34.0 °F 89% 29.84 in 10.0 mi NNW 9.2 mph - N/A   Overcast
2:56 PM 37.9 °F 31.5 °F 34.0 °F 86% 29.90 in 10.0 mi NNW 9.2 mph - N/A   Overcast
3:56 PM 37.9 °F 32.1 °F 34.0 °F 86% 29.92 in 10.0 mi NNW 8.1 mph - N/A   Overcast
4:32 PM 39.0 °F 31.0 °F 33.1 °F 79% 29.86 in 10.0 mi NW 13.8 mph - N/A   Overcast
4:56 PM 39.0 °F 32.8 °F 32.0 °F 76% 29.92 in 10.0 mi NW 9.2 mph - N/A   Overcast
5:56 PM 39.0 °F 33.4 °F 32.0 °F 76% 29.95 in 10.0 mi NW 8.1 mph - N/A   Overcast
6:56 PM 39.0 °F 34.0 °F 32.0 °F 76% 29.97 in 10.0 mi NNW 6.9 mph - N/A   Overcast
7:56 PM 39.0 °F 30.6 °F 30.0 °F 70% 30.01 in 10.0 mi NW 15.0 mph 21.9 mph N/A   Overcast
8:56 PM 37.0 °F 28.5 °F 28.9 °F 73% 30.03 in 10.0 mi NNW 13.8 mph 20.7 mph N/A   Overcast
9:56 PM 37.0 °F 29.3 °F 28.0 °F 70% 30.03 in 10.0 mi NNW 11.5 mph - N/A   Overcast
10:56 PM 37.0 °F 29.3 °F 28.0 °F 70% 30.04 in 10.0 mi NNW 11.5 mph - N/A   Overcast
11:56 PM 37.0 °F 29.3 °F 28.0 °F 70% 30.05 in 10.0 mi NW 11.5 mph - N/A   Overcast